Regional Weather Roundup
Issued by NWS

Home | Current Version | Previous Version | Text Only | Print | Product List | Glossary On
Versions: 1 2 3 4 5 6 7 8 9 10 11 12 13 14 15 16 17 18 19 20 21 22 23 24 25 26 27 28 29 30 31 32 33 34 35 36 37 38 39 40 41 42 43 44 45 46 47 48 49 50
000
ASHW40 PHFO 111912
RWRHI

WEATHER ROUNDUP FOR HAWAII
NATIONAL WEATHER SERVICE HONOLULU HI
900 AM HST MON DEC 11 2017

THIS IS AN AUTOMATED REPORT THAT HAS NOT BEEN QUALITY CONTROLLED.

NOTE..."FAIR" INDICATES FEW OR NO CLOUDS BELOW 12,000 FEET WITH NO
SIGNIFICANT WEATHER AND/OR OBSTRUCTIONS TO VISIBILITY.

* - THESE SITES REPORT LIMITED FIELDS
# - BUOY DATA PROVIDED BY PACIFIC ISLANDS OCEAN OBSERVING SYSTEM.

HIZ001>004-112000-
KAUAI-NIIHAU-

CITY           SKY/WX    TMP DP  RH WIND       PRES   REMARKS
LIHUE APT      CLOUDY    66  65  96 W5        29.99R
PORT ALLEN*      N/A     70 N/A N/A NE2         N/A
POIPU*           N/A     68 N/A N/A N2          N/A
PRINCEVILLE*   NOT AVBL
KOKOLE POINT*  NOT AVBL
MOLOAA DAIRY*  NOT AVBL
WAIMEA HTS*    NOT AVBL
PUU OPAE*      NOT AVBL
PUU LUA*       NOT AVBL
MAKAHA RIDGE*  NOT AVBL
$$

HIZ005>011-112000-
OAHU-

CITY           SKY/WX    TMP DP  RH WIND       PRES   REMARKS
HONOLULU       CLOUDY    76  67  73 E5        29.98S
KALAELOA       CLOUDY    75  67  76 CALM      30.00R
KANEOHE MCB    PTSUNNY   76  70  82 SE5       29.96R
WHEELER FIELD  FAIR      71  67  85 SE3       30.02R
BELLOWS*       NOT AVBL
KAHUKU*        NOT AVBL
WHEELER*       NOT AVBL
WAIANAE HARBOR NOT AVBL
DILLINGHAM*    NOT AVBL
KAHUKU TRN*      N/A     66  64  94 W1G7        N/A
KAWAILOA*      NOT AVBL
KII*           NOT AVBL
MAKUA RANGE*     N/A     66  57  72 SE3         N/A
OAHU FOREST NW NOT AVBL
SCHOFIELD BRK* NOT AVBL
SCHOFIELD S*   NOT AVBL
WAIANAE VLY*   NOT AVBL
KUAOKALA*      NOT AVBL
HONOULIUULI*   NOT AVBL
MOKUOLOE IS*   NOT AVBL
PALEHUA*       NOT AVBL
WAIAWA PHB*    NOT AVBL
$$

HIZ012>013-112000-
MOLOKAI-

CITY           SKY/WX    TMP DP  RH WIND       PRES   REMARKS
MOLOKAI AIRPT  MOSUNNY   72  68  87 SE7       30.01S
KALAUPAPA      NOT AVBL
MAKAPULAPAI*   NOT AVBL
MOLOKAI 1*     NOT AVBL
PUU ALII*      NOT AVBL
$$

HIZ016-112000-
KAHOOLAWE-

CITY           SKY/WX    TMP DP  RH WIND       PRES   REMARKS
KAHOOLAWE*     NOT AVBL
HAKIOAWA*      NOT AVBL
HONOKANAIA*    NOT AVBL
KANELOA*       NOT AVBL
KEALIALALO*    NOT AVBL
LUA MAKIKA*    NOT AVBL
$$

HIZ014>015-112000-
LANAI-

CITY           SKY/WX    TMP DP  RH WIND       PRES   REMARKS
LANAI CITY     FAIR      68  65  90 SE8       30.06R
LANAI 1*       NOT AVBL
$$

HIZ017>028-112000-
MAUI-

CITY           SKY/WX    TMP DP  RH WIND       PRES   REMARKS
KAHULUI        MOSUNNY   73  68  84 SW6       30.00S
KAPALUA-W MAUI PTSUNNY   73  64  73 SE6       30.02
HANA AIRPORT   NOT AVBL
HANA*            N/A     73 N/A N/A SE5         N/A
HALEAKALA SUMM   N/A     50  -2  11 S6          N/A
MAALAEA BAY*   NOT AVBL
HALEAKALA*     NOT AVBL
KAUPO GAP*     NOT AVBL
KULA 1*        NOT AVBL
$$

HIZ023>026-112000-
BIG ISLAND OF HAWAII COAST AND LOWER SLOPES-

CITY           SKY/WX    TMP DP  RH WIND       PRES   REMARKS
KAILUA KONA    MOSUNNY   77  63  61 N3        30.01R
HILO           MOSUNNY   74  61  63 SW5       30.03S
HONOKAA*         N/A     70 N/A N/A VRB1        N/A
KAWAIHAE MWT*    N/A     77 N/A N/A SE5         N/A
KAWAIHAE*      NOT AVBL
SOUTH POINT*     N/A     70 N/A N/A N7          N/A
UPOLU AIRPORT* NOT AVBL
KAMUELA*       CLEAR     64  57  77 CALM      30.11S
HAKALAU*       NOT AVBL
KALOKO-HONOKO* NOT AVBL
PALI 2*          N/A     63  57  82 S3G9        N/A
KEALAKOMO*     NOT AVBL
KAUPULEHU*     NOT AVBL
KAPAPALA*      NOT AVBL
LOWER KAHUKU*  NOT AVBL
PUHE CS*       NOT AVBL
PUHO CS*       NOT AVBL
PTA KEAMUKU*   NOT AVBL
WAIKOLOA*      NOT AVBL
$$

HIZ027>028-112000-
BIG ISLAND OF HAWAII INTERIOR AND SUMMMITS-

CITY           SKY/WX    TMP DP  RH WIND       PRES   REMARKS
BRADSHAW FIELD MOSUNNY   63  19  18 CALM      30.30S
MK VISITOR CEN   N/A     54   1  12 W2          N/A
MAUNA KEA*       N/A     34  -6  18 SW28        N/A  WCI  20
MAUNA LOA*     NOT AVBL
MAUNA LOA 1*   NOT AVBL
PTA KIPUKA*      N/A    N/A N/A N/A E1          N/A
PTA RANGE 17*  NOT AVBL
PTA WEST*        N/A     64  37  36 W3G12       N/A
NENE CABIN*    NOT AVBL
AHUMOA*        NOT AVBL
PTA PORTABLE*  NOT AVBL
PUU MALI*      NOT AVBL
$$

HIC003-112000-
NORTHWEST ISLANDS-

CITY           SKY/WX    TMP DP  RH WIND       PRES   REMARKS
MIDWAY ISLAND  MOCLDY    66  52  59 NW10      30.13R
MIDWAY NOS*    NOT AVBL
FRENCH FRIGATE NOT AVBL
$$

PHZ110>124-180-112000-
BUOY REPORTS

STATION/POSITION TIME  TEMP    WIND        PRES    WAVE   SWELL
                       AIR SEA DIR/SP/G            HT/PER HT/DIR
                 (UTC) (F)     (DEG/KT/KT) (MB)    (FT/S) (FT/D)
BUOY 51001       1850   73 75  250/ 10/ 12 1014.9R   7/11   7
BUOY 51101       1850   73 75  250/ 10/ 14 1015.3R   7/11   7/320
BUOY 51100       NOT AVBL
BUOY 51002       1850   77 78   60/ 12/ 16 1016.1R  10/13  10/350
BUOY 51003       1850   74 78   20/  4/  6 1015.8R   9/13   8/320
BUOY 51004       1850   77 79   70/ 10/ 12 1016.8R  10/14  10/340
WAIMEA BAY#      1802      75                N/A     9/13   7/330
MOKAPU POINT#    1834      77                N/A     8/13   5/350
LANAI#           NOT AVBL
BARBERS PT 2#    NOT AVBL
PAUWELA#         1830      78                N/A     9/13   7/330
HILO#            1857      77                N/A    11/13  10/340
KANEOHE BAY#     NOT AVBL
KANEOHE BAY 2#   NOT AVBL
HANALEI#         1852      77                N/A    10/13   8/330
KAHULUI HARBOR   1842   72 77  160/  3/  4 1015.9R
HONOLULU HARBOR  1842   75 78  110/  3/  4 1016.1R
PEARL HARBOR#    1830      78                N/A     2/13   2/160
KILO NALU        NOT AVBL
HILO HARBOR      1842   73 76  210/  5/  7 1016.6R
MOKUOLOE         1836   71 75  140/  3/  4 1015.0S
NAWILIWILI       1842   66 78  240/  4/  5 1015.5R
WHOTS BUOY       NOT AVBL
BUOY 51028       NOT AVBL
$$

......................KEY........................................
  SKY/WX - SKY CONDITIONS/PRESENT WEATHER
  TMP    - TEMPERATURE IN FAHRENHEIT
  DWPT   - DEWPOINT IN FAHRENHEIT
  RH     - RELATIVE HUMIDITY IN PERCENT
  WIND   - DIRECTION AND SPEED /MPH FOR ISLANDS...KTS FOR BUOYS/
  PRES   - MEAN SEA LEVEL PRESSURE IN INCHES OF HG
  VSB    - VISIBILITY IN MILES
  HX     - HEAT INDEX
  WCI    - WIND CHILL INDEX
  VRB    - VARIABLE WIND DIRECTION
  N/A    - NOT AVAILABLE




USA.gov is the U.S. government's official web portal to all federal, state and local government web resources and services.